Terminal Aerodrome Forecast
Issued by NWS

Home | Current Version | Previous Version | Text Only | Print | Product List | Glossary On
Versions: 1 2 3 4 5 6 7 8 9 10 11 12 13 14 15 16 17 18 19
977
FTUS41 KPBZ 141120
TAFMGW
TAF
KMGW 141120Z 1412/1512 15003KT P6SM SCT035
     FM142300 VRB05KT P6SM BKN080
     FM150400 16008KT 5SM -SN OVC015=

USA.gov is the U.S. government's official web portal to all federal, state and local government web resources and services.